TimeAST,TemperatureF,Dew PointF,Humidity,Sea Level PressureIn,VisibilityMPH,Wind Direction,Wind SpeedMPH,Gust SpeedMPH,PrecipitationIn,Events,Conditions,WindDirDegrees,DateUTC
12:53 AM,75.0,69.1,82,30.04,10.0,East,6.9,-,N/A,,Partly Cloudy,80,2013-01-22 04:53:00
2:53 AM,73.9,69.1,85,30.01,10.0,East,3.5,-,N/A,,Clear,80,2013-01-22 06:53:00
3:53 AM,73.9,70.0,87,30.00,10.0,Calm,Calm,-,N/A,,Clear,0,2013-01-22 07:53:00
4:53 AM,73.0,70.0,90,30.01,10.0,East,6.9,-,N/A,,Clear,100,2013-01-22 08:53:00
5:53 AM,73.9,70.0,87,30.02,10.0,East,6.9,-,N/A,,Clear,100,2013-01-22 09:53:00
6:53 AM,75.0,70.0,84,30.04,10.0,East,10.4,-,N/A,,Overcast,100,2013-01-22 10:53:00
7:53 AM,75.9,71.1,85,30.05,10.0,East,5.8,-,N/A,,Overcast,100,2013-01-22 11:53:00
8:53 AM,79.0,70.0,74,30.08,10.0,SE,9.2,-,N/A,,Overcast,130,2013-01-22 12:53:00
9:53 AM,81.0,71.1,72,30.09,10.0,SE,12.7,-,N/A,,Mostly Cloudy,140,2013-01-22 13:53:00
10:53 AM,81.0,72.0,74,30.09,10.0,SE,15.0,20.7,N/A,,Clear,140,2013-01-22 14:53:00
11:53 AM,82.0,71.1,69,30.07,10.0,SE,16.1,-,N/A,,Partly Cloudy,130,2013-01-22 15:53:00
12:53 PM,82.0,72.0,71,30.04,10.0,SE,13.8,-,N/A,,Partly Cloudy,140,2013-01-22 16:53:00
1:53 PM,82.9,72.0,69,30.02,10.0,SE,15.0,-,N/A,,Partly Cloudy,140,2013-01-22 17:53:00
2:53 PM,82.9,72.0,69,30.01,10.0,SE,15.0,20.7,N/A,,Clear,130,2013-01-22 18:53:00
3:53 PM,82.0,72.0,71,30.01,10.0,SE,13.8,19.6,N/A,,Scattered Clouds,140,2013-01-22 19:53:00
4:53 PM,81.0,71.1,72,30.02,10.0,SE,13.8,-,N/A,,Scattered Clouds,140,2013-01-22 20:53:00
5:53 PM,80.1,72.0,76,30.03,10.0,SE,12.7,23.0,N/A,,Partly Cloudy,130,2013-01-22 21:53:00
6:53 PM,79.0,71.1,77,30.04,10.0,ESE,9.2,-,N/A,,Partly Cloudy,120,2013-01-22 22:53:00
7:53 PM,78.1,71.1,79,30.05,10.0,ESE,11.5,-,N/A,,Mostly Cloudy,110,2013-01-22 23:53:00
8:04 PM,78.8,71.6,78,30.05,10.0,ESE,11.5,-,N/A,,Partly Cloudy,110,2013-01-23 00:04:00
8:53 PM,78.1,71.1,79,30.07,10.0,East,9.2,-,N/A,,Overcast,100,2013-01-23 00:53:00
9:53 PM,78.1,73.0,84,30.09,10.0,SE,10.4,17.3,N/A,,Overcast,130,2013-01-23 01:53:00
10:00 PM,75.2,71.6,89,30.08,8.0,East,8.1,20.7,N/A,,Overcast,90,2013-01-23 02:00:00
10:43 PM,77.0,73.4,89,30.08,10.0,ESE,10.4,-,N/A,,Overcast,110,2013-01-23 02:43:00
10:53 PM,77.0,73.0,88,30.08,10.0,East,9.2,-,N/A,,Overcast,100,2013-01-23 02:53:00
11:53 PM,75.9,73.0,91,30.06,10.0,East,8.1,-,N/A,,Overcast,100,2013-01-23 03:53:00